This is the latest recevied weather packets stored in our database for station/object K1AWR. If no packets are shown the sender has not sent any weather packets the latest 10 day(s).
| Time | Temp. | Humidity | Pressure | Rain* | Wind** | Luminosity | Snow |
|---|---|---|---|---|---|---|---|
| 1777531283 | 9.44° C | 92% | 1009.1 hPa | 1.78 mm | - | 0 W/m² | - |
| 1777530981 | 9.44° C | 92% | 1009.2 hPa | 1.27 mm | - | 0 W/m² | - |
| 1777530678 | 9.44° C | 92% | 1009 hPa | 3.05 mm | - | 0 W/m² | - |
| 1777530375 | 9.44° C | 92% | 1009.1 hPa | 1.78 mm | - | 0 W/m² | - |
| 1777530071 | 9.44° C | 92% | 1009.3 hPa | 1.78 mm | - | 0 W/m² | - |
| 1777529769 | 9.44° C | 92% | 1009.5 hPa | 3.05 mm | - | 0 W/m² | - |
| 1777529464 | 9.44° C | 91% | 1009.8 hPa | 1.27 mm | - | 0 W/m² | - |
| 1777529162 | 9.44° C | 91% | 1009.9 hPa | 1.78 mm | - | 0 W/m² | - |
| 1777528858 | 9.44° C | 91% | 1010.1 hPa | 1.27 mm | - | 0 W/m² | - |
| 1777528555 | 9.44° C | 91% | 1010.2 hPa | 1.27 mm | - | 0 W/m² | - |
| 1777528252 | 9.44° C | 90% | 1010.2 hPa | 1.78 mm | - | 0 W/m² | - |
| 1777527950 | 9.44° C | 90% | 1010.5 hPa | 3.05 mm | - | 0 W/m² | - |
| 1777527645 | 9.44° C | 90% | 1010.3 hPa | 1.27 mm | - | 0 W/m² | - |
| 1777527341 | 10° C | 89% | 1010.5 hPa | 0 mm | - | 0 W/m² | - |
| 1777527036 | 10° C | 89% | 1010.6 hPa | 1.78 mm | - | 0 W/m² | - |
| 1777526732 | 10° C | 89% | 1010.5 hPa | 0 mm | - | 0 W/m² | - |
| 1777526428 | 10° C | 88% | 1010.6 hPa | 1.27 mm | - | 0 W/m² | - |
| 1777526122 | 10° C | 87% | 1010.6 hPa | 1.27 mm | - | 0 W/m² | - |
| 1777525819 | 10° C | 86% | 1010.6 hPa | 1.78 mm | - | 0 W/m² | - |
| 1777525517 | 10° C | 86% | 1010.6 hPa | 1.78 mm | - | 0 W/m² | - |
| 1777525214 | 10.56° C | 85% | 1010.9 hPa | 0 mm | - | 0 W/m² | - |
| 1777524909 | 10.56° C | 84% | 1010.6 hPa | 0 mm | - | 0 W/m² | - |
| 1777524607 | 10.56° C | 82% | 1010.8 hPa | 0 mm | - | 0 W/m² | - |
| 1777524305 | 10.56° C | 81% | 1010.6 hPa | 0 mm | - | 0 W/m² | - |
| 1777524001 | 10.56° C | 80% | 1010.7 hPa | 0 mm | - | 0 W/m² | - |
* Rain latest hour (hover to see other rain measurements)
** Current wind speed in m/s (hover to see current wind gust speed)